Location: Asheville, NC
(35.6000°N, 82.5500°W)
Time: 22:46:30
(UTC-04:00)

RS-15 - Pass Details

Date: 09 January 2018
Orbit: 1889 x 2156 km, 64.8° (Epoch: 25 April)

Event Time Altitude Azimuth Distance (km) Brightness Sun altitude
Rises 19:34:49 0° 330° (NNW) 5,567 10.7 -23.9°
Reaches altitude 10° 19:38:18 10° 333° (NNW) 4,530 10.1 -24.5°
Maximum altitude 19:50:01 74° 58° (ENE) 2,042 7.8 -26.9°
Drops below altitude 10° 20:01:05 10° 144° (SE) 4,308 9.6 -29.1°
Sets 20:04:17 0° 146° (SE) 5,283 10.1 -29.8°
